Location: Newark
(51.5306°N, 0.2243°W)
Time: 16:30:42
(UTC+00:00)

Envisat - Pass Details

Date: 23 September 2019
Orbit: 764 x 766 km, 98.1° (Epoch: 20 October)

Event Time Altitude Azimuth Distance (km) Brightness Sun altitude
Rises 19:13:21 0° 204° (SSW) 3,223 6.3 -12.5°
Reaches altitude 10° 19:16:08 10° 219° (SW) 2,302 5.8 -12.9°
Maximum altitude 19:20:03 22° 270° (W) 1,624 5.6 -13.5°
Drops below altitude 10° 19:24:00 10° 321° (NW) 2,315 6.4 -14.0°
Sets 19:26:50 0° 336° (NNW) 3,246 6.9 -14.5°
